Wind_Speed
42 45 43 41 42 41 41 44 41 35 35 40 44 46 46 45 45 44 44 43 44 44 44 43 44 44 45 44 43 43 44 44 43 42 40 38 37 36 35 34 33 34 35 36 36 35 34 35 35 36 37 38 40 40 41 40 39 36 34 33 34 34 32 30 28 26 24 25 26 27 27 26 26 26 25 24 24 24 24 23 24 24 25 26 27
41 44 43 39 38 40 41 43 40 36 38 42 44 46 47 48 47 45 44 44 45 45 45 45 46 46 47 47 46 46 47 47 46 45 43 40 38 38 37 36 37 37 37 37 36 35 34 35 36 37 37 38 39 39 38 37 35 34 33 32 32 31 29 28 27 26 25 26 27 27 27 26 26 26 25 25 25 25 25 25 25 26 27 29 31
39 42 43 37 34 38 43 43 40 38 39 41 44 45 45 48 50 49 46 46 45 44 45 47 48 48 47 47 47 48 49 48 47 45 43 41 40 40 39 40 40 39 38 38 38 37 38 38 38 38 38 38 39 38 36 34 33 32 32 31 30 28 27 27 27 26 26 27 29 28 28 27 27 27 26 26 26 26 26 26 27 28 30 32 33
37 40 43 39 35 37 42 44 41 38 37 37 42 45 44 44 47 48 48 47 46 45 45 48 50 49 48 48 48 47 48 47 45 43 41 40 40 41 41 42 42 40 39 39 38 38 39 39 38 38 38 38 37 36 34 32 32 31 31 29 28 27 27 27 27 28 28 30 30 30 29 29 29 29 29 28 28 28 28 28 29 31 32 33 34
37 39 41 42 40 39 42 44 43 39 36 35 37 42 43 42 42 43 45 45 45 45 46 47 48 48 48 48 48 47 46 45 44 43 42 42 43 44 44 44 43 41 39 38 38 39 40 40 40 39 38 37 36 34 33 32 32 32 32 31 30 29 28 28 29 30 31 32 32 32 32 32 32 32 32 31 31 31 31 31 32 33 35 35 36
38 38 39 41 40 38 40 43 42 39 36 34 35 38 42 43 40 41 44 46 45 44 45 45 44 44 43 44 45 46 46 47 47 47 47 47 47 47 46 45 44 42 40 40 41 42 42 42 42 40 39 38 36 34 34 34 35 35 34 33 32 31 30 31 32 32 33 34 35 35 35 35 35 35 35 34 34 33 34 34 35 36 37 38 39
39 39 40 41 39 36 37 39 40 39 37 35 34 35 38 41 40 40 43 46 47 46 44 43 42 41 41 41 41 42 44 45 46 47 48 49 48 47 46 45 44 43 42 43 43 43 43 43 43 42 41 39 37 36 37 38 38 38 37 35 34 33 33 33 34 35 36 36 37 38 38 38 38 38 38 37 36 36 37 38 39 40 41 42 42
39 41 42 43 43 39 36 37 38 39 39 37 34 33 35 38 40 41 41 43 47 49 48 45 43 42 41 41 41 41 41 42 43 44 46 47 47 47 46 46 45 44 44 44 44 44 44 44 45 44 43 41 39 39 39 40 40 39 38 37 36 36 35 36 36 37 38 38 39 40 41 41 42 42 41 41 40 39 40 42 42 43 45 46 46
38 41 43 45 47 44 40 37 36 37 39 38 36 35 36 38 40 43 42 40 42 47 51 51 48 44 43 41 40 40 40 41 42 43 44 45 45 46 46 46 45 44 44 44 44 45 45 45 45 45 44 43 41 41 41 41 41 40 40 39 39 38 38 38 38 39 40 41 42 43 43 44 45 45 45 44 44 43 44 45 46 46 48 49 50
39 40 42 44 45 46 45 42 38 36 37 39 39 38 39 39 40 42 42 41 40 43 47 50 50 48 47 46 44 43 43 44 45 45 46 46 47 48 48 48 47 46 46 46 47 46 46 45 45 45 44 44 44 43 43 43 43 43 42 42 41 41 41 41 41 42 43 44 45 45 46 46 46 47 47 47 48 48 48 49 49 49 50 52 53
43 42 42 42 41 42 44 45 43 39 38 39 41 40 40 40 41 41 42 42 42 43 45 47 48 49 50 50 49 49 49 50 50 51 51 51 52 52 51 50 49 49 48 48 48 47 46 46 45 44 44 44 45 45 46 46 46 45 45 44 44 44 44 44 44 45 46 47 48 48 48 48 48 49 50 50 51 51 51 52 52 53 53 54 56
44 45 44 43 41 39 39 42 44 43 42 42 43 42 40 39 39 40 41 41 42 44 46 47 48 50 52 52 53 54 55 55 55 55 55 55 55 54 53 52 51 51 50 49 49 48 47 46 44 44 44 45 47 48 48 49 48 47 47 46 46 46 46 47 47 48 49 50 50 51 51 51 51 51 52 53 53 53 53 54 55 55 56 57 59
44 47 47 45 43 41 39 40 42 43 44 45 45 44 43 41 41 42 43 44 45 46 47 49 51 53 55 56 57 58 58 59 58 58 58 59 58 58 57 55 54 53 52 51 50 49 47 46 45 45 46 47 48 49 49 49 48 48 48 48 48 48 49 49 50 51 52 53 53 53 53 53 53 54 55 56 56 55 55 56 56 57 58 60 61
43 46 49 49 46 44 43 42 42 43 45 46 46 45 44 44 43 44 46 49 49 49 50 51 53 56 57 57 57 58 59 61 61 61 61 61 61 60 59 58 56 55 53 52 51 50 49 49 48 48 48 48 49 49 49 49 48 48 49 49 49 50 50 51 52 53 54 55 55 55 56 56 55 56 56 57 57 57 57 58 58 59 61 62 63
44 46 49 51 51 48 46 45 45 45 46 46 46 46 46 46 46 47 49 51 52 53 53 54 54 55 57 57 56 57 58 60 61 61 61 61 61 60 59 58 57 56 55 53 53 53 53 52 51 50 50 50 51 51 51 51 51 51 51 51 51 51 52 53 55 56 57 57 57 57 57 58 58 58 58 59 59 60 60 61 62 63 64 65 66
47 47 48 51 53 53 50 48 48 48 49 47 46 47 47 46 47 48 50 52 54 53 54 54 54 55 56 56 56 57 58 60 61 61 61 61 61 61 60 60 59 58 57 56 56 56 56 56 54 53 52 52 53 53 53 53 53 53 53 53 53 54 55 56 57 58 58 58 59 59 59 59 59 60 60 61 61 62 63 64 66 67 68 68 68
47 47 48 50 53 55 54 52 51 51 51 49 48 49 48 48 48 48 49 51 52 51 52 53 55 56 56 56 56 57 59 60 61 62 62 62 62 62 62 62 61 61 61 60 59 58 58 57 56 54 53 53 53 53 54 54 55 55 55 55 55 56 57 58 59 59 59 60 61 61 60 60 60 61 62 64 64 65 67 69 70 71 70 69 68
47 47 47 49 52 54 56 56 54 54 53 52 51 52 52 51 51 51 51 53 53 51 51 54 55 56 57 58 59 60 62 63 64 64 64 63 63 63 64 64 64 64 63 62 61 60 59 58 56 54 54 55 55 55 55 56 56 57 56 56 57 57 58 58 59 60 60 60 61 61 61 62 63 64 65 66 67 69 70 71 71 71 70 69 69
48 49 48 48 50 53 55 56 57 56 55 55 56 57 57 56 56 55 54 56 56 55 55 57 59 61 61 62 63 64 65 66 68 68 68 68 68 68 68 68 69 67 65 64 63 62 61 60 59 58 57 58 58 58 58 57 57 57 58 58 59 60 59 59 60 61 61 61 62 62 63 64 66 67 68 69 70 71 71 71 70 70 70 70 70
48 50 50 50 51 52 54 56 57 58 57 57 58 59 60 60 61 60 60 60 59 59 60 61 63 65 65 65 66 67 66 66 68 70 72 73 74 74 73 72 71 69 67 66 65 64 63 62 61 61 61 60 61 61 60 60 60 59 60 60 61 61 61 61 62 63 63 63 64 64 64 66 67 69 70 71 71 71 71 71 71 71 71 71 71
47 49 51 52 52 53 54 55 56 58 59 59 60 60 61 61 63 65 66 66 66 66 66 65 66 66 64 62 63 66 69 70 71 72 74 75 76 75 74 73 72 70 68 67 67 65 64 63 63 63 63 63 63 63 64 64 64 64 63 63 63 63 62 62 62 63 64 65 66 67 67 68 69 70 71 71 72 72 72 72 72 72 73 74 75
47 48 51 53 54 54 55 56 57 58 60 61 62 62 63 63 64 65 66 67 68 69 69 69 69 68 66 63 62 63 67 70 71 72 73 74 75 75 73 73 72 71 69 68 67 66 64 64 64 64 64 65 66 66 67 68 68 67 67 66 66 65 65 65 65 66 68 69 70 70 71 71 72 72 72 72 72 72 72 73 74 75 77 79 81
48 49 51 53 55 56 57 57 58 59 60 62 64 65 66 66 65 66 66 67 67 67 68 69 69 70 70 70 70 69 69 69 69 70 71 72 73 73 72 72 72 71 70 69 68 67 66 67 67 67 67 68 69 69 69 70 70 69 69 68 68 68 68 68 69 71 72 72 73 73 74 74 74 74 73 73 73 74 74 76 78 80 83 85 87
48 50 51 53 55 57 59 59 59 60 61 62 64 65 67 68 68 67 67 67 68 68 69 69 70 71 72 73 74 74 74 73 72 72 71 72 72 72 72 72 73 72 72 71 71 70 70 71 71 71 71 71 71 70 70 69 70 70 70 70 70 71 72 72 73 73 74 74 74 75 75 74 74 74 74 75 76 78 79 81 83 86 88 90 93
48 50 51 52 54 56 59 60 61 62 62 63 63 65 67 69 70 69 68 68 69 70 71 72 72 72 74 75 75 75 75 75 75 74 74 74 73 73 74 74 74 74 74 74 74 73 73 73 73 73 72 71 70 70 70 70 72 73 74 74 75 75 76 75 75 75 75 75 75 74 74 74 75 76 77 79 81 83 85 87 89 91 94 96 98
50 51 52 53 54 55 57 60 61 62 63 64 64 65 66 68 70 71 71 71 70 71 72 73 74 74 74 75 75 76 76 76 75 75 75 75 75 75 75 75 74 74 75 75 75 74 74 73 73 73 73 72 72 72 73 75 77 78 79 79 78 78 77 76 75 75 75 75 75 75 76 77 79 80 82 85 87 89 91 93 95 97 98 99 100
53 54 53 54 55 56 58 59 61 63 64 65 66 67 67 68 69 71 73 74 75 74 74 74 75 75 76 77 76 76 76 76 76 76 76 76 76 75 75 75 75 75 76 76 76 76 76 76 76 76 76 76 76 77 79 81 82 82 81 81 80 78 77 77 76 76 76 76 77 78 80 82 84 86 88 90 92 94 96 98 99 100 100 101 101
54 56 56 56 56 57 58 60 61 63 64 65 66 68 69 69 70 71 72 74 76 78 78 78 78 78 78 79 79 79 79 79 78 78 78 78 78 78 77 77 77 77 78 78 79 79 79 79 79 79 80 81 81 82 83 83 83 82 81 81 80 79 79 78 78 78 79 80 81 83 85 88 90 92 94 96 97 99 100 100 101 101 102 102 103
54 56 58 59 60 60 60 60 61 63 65 66 67 68 69 71 72 72 73 74 76 77 80 82 83 83 83 82 81 81 82 82 81 81 81 81 81 82 82 81 80 81 81 81 82 82 82 83 83 83 84 85 85 85 84 84 83 83 82 81 81 81 81 81 81 82 84 85 87 90 92 94 96 97 99 99 100 101 101 102 103 103 103 103 103
56 57 58 60 62 62 63 63 63 64 65 66 67 69 70 71 73 74 74 75 76 77 78 81 83 85 87 87 86 85 85 85 85 84 84 85 85 86 86 85 84 84 84 85 85 85 85 85 85 85 85 85 85 85 85 84 83 83 83 83 84 84 85 86 88 90 92 93 95 96 98 99 100 100 101 101 102 102 103 103 103 103 103 103 103
59 59 60 61 63 64 65 65 66 66 67 67 68 70 71 72 73 74 75 76 77 78 79 81 82 84 86 88 89 89 89 89 89 88 88 88 88 88 89 89 88 88 88 87 87 87 87 87 86 86 86 87 87 87 88 88 88 88 89 90 91 93 94 95 97 98 98 99 99 100 100 101 101 102 102 103 103 103 103 103 103 103 103 103 102
61 61 62 63 64 65 66 67 68 68 69 70 70 71 72 73 74 75 76 77 78 80 81 82 83 84 86 87 88 89 90 92 92 92 92 91 91 91 91 91 91 91 91 91 91 91 91 91 91 92 92 93 94 94 95 96 96 97 98 98 99 99 100 100 100 101 101 101 101 101 102 102 102 103 103 103 103 103 103 103 103 103 103 103 103
63 63 64 64 65 66 67 68 69 70 70 71 72 72 73 73 74 75 76 77 79 80 81 83 84 85 86 87 87 88 89 91 92 93 93 93 93 93 93 94 94 94 95 95 95 95 96 96 97 98 98 99 99 100 100 100 100 101 101 101 101 101 101 101 102 102 102 102 102 102 102 102 102 103 103 103 103 103 103 103 103 103 103 103 104
64 65 65 65 65 66 67 68 69 70 71 71 72 73 73 74 74 74 75 76 78 79 80 82 83 84 86 87 88 88 89 90 91 92 93 93 94 94 95 95 96 96 97 97 97 98 98 99 99 100 101 101 101 101 101 102 102 102 102 102 102 102 102 102 102 102 101 101 101 101 102 102 102 102 102 102 102 103 103 103 104 104 105 105 106
65 65 65 65 65 66 67 68 68 69 70 70 71 72 73 73 74 74 75 76 77 78 79 80 82 83 85 86 88 89 90 90 91 91 92 93 93 94 95 96 97 97 97 97 98 98 98 99 99 100 100 100 101 101 101 101 101 101 101 101 101 101 101 101 101 100 100 101 101 101 102 102 102 102 102 102 103 103 104 105 106 106 107 107 107
63 63 64 64 64 64 65 66 67 67 68 69 70 71 71 72 73 73 74 75 76 77 78 79 80 81 83 84 86 88 90 91 92 92 92 93 93 94 95 95 96 97 97 97 98 98 98 98 99 99 99 99 99 99 99 99 99 99 99 99 99 100 100 100 100 100 101 101 101 101 102 102 102 102 103 104 105 106 106 107 107 108 108 108 107
61 61 61 62 62 63 63 64 65 66 66 67 68 70 71 71 72 73 74 75 76 77 77 78 79 80 81 82 83 85 87 88 90 91 92 93 93 94 95 95 96 96 97 97 97 98 98 98 98 98 98 98 98 98 98 98 98 98 98 99 99 100 100 100 101 101 101 102 102 102 103 103 104 105 106 106 107 107 108 107 107 107 107 107 107
58 59 60 60 61 62 62 63 64 65 66 66 67 68 69 70 71 72 74 75 76 77 77 78 79 80 80 81 82 83 84 85 86 87 88 89 91 92 93 94 95 96 97 97 97 98 98 98 98 98 98 98 98 98 98 98 99 99 99 100 100 101 101 102 102 103 103 104 104 105 105 106 106 107 107 108 108 107 107 107 107 107 107 107 107
59 59 60 61 62 63 64 65 65 66 67 67 68 68 69 70 71 72 73 75 76 77 77 78 79 80 81 82 83 83 84 85 86 87 87 88 88 89 90 91 92 94 95 96 97 97 98 98 99 99 99 99 99 99 100 100 100 101 101 102 102 103 103 104 105 105 105 106 106 106 107 107 107 107 107 108 108 108 108 107 107 107 107 106 104
60 60 61 62 63 64 65 66 67 67 68 69 69 70 71 71 73 74 75 76 77 78 78 78 79 80 81 82 83 84 85 86 87 88 89 89 89 90 90 91 91 92 93 94 95 96 97 98 99 99 100 100 100 101 101 102 102 103 103 104 104 105 105 106 106 106 106 106 106 107 107 107 107 108 108 108 108 108 108 107 107 105 104 102 100
58 58 59 59 60 61 62 63 64 64 65 66 67 68 69 71 72 74 75 77 78 79 79 79 80 80 81 82 84 85 86 87 88 89 89 90 90 91 91 92 92 93 93 94 94 95 96 97 98 98 99 100 100 101 102 102 103 103 104 104 105 105 106 106 106 106 106 106 107 107 107 108 108 109 109 109 109 108 107 105 103 101 99 97 95
56 56 57 57 58 59 59 60 61 61 62 62 62 62 64 65 67 69 71 73 75 76 77 78 79 80 81 82 83 85 86 87 88 88 89 90 90 91 91 92 93 93 94 95 95 96 97 97 98 99 99 100 101 101 102 103 103 104 104 105 105 106 106 106 106 107 107 107 108 108 108 109 109 109 109 108 107 105 103 101 99 97 95 93 91
52 53 53 54 55 56 57 58 59 60 61 61 61 62 62 63 63 65 66 68 69 71 72 73 74 76 77 79 81 82 84 86 87 88 89 90 91 91 92 93 93 94 95 95 96 97 97 98 99 99 100 101 101 102 103 103 104 104 105 105 106 106 106 107 107 107 108 108 109 109 109 109 108 108 107 105 103 101 99 97 95 93 90 87 84
51 51 52 52 52 53 53 54 54 55 56 57 59 60 61 62 62 63 65 66 67 67 68 69 69 70 72 74 76 78 80 81 83 85 86 88 90 91 92 93 94 95 95 96 97 97 98 98 99 100 100 101 102 103 103 104 104 105 105 106 106 106 107 107 107 108 108 108 108 108 107 106 105 104 103 101 99 97 95 93 90 87 84 81 78
49 50 51 52 52 53 53 53 53 53 53 53 54 55 56 57 59 60 62 64 65 66 66 66 67 68 69 70 72 73 75 76 78 80 81 83 85 87 89 90 92 94 95 96 97 97 98 99 99 100 101 102 102 103 103 104 104 105 105 106 106 106 106 107 107 107 107 106 106 105 104 102 101 99 98 96 94 92 89 87 84 81 78 75 73
46 47 48 49 50 51 53 53 54 54 54 54 53 53 53 54 55 56 58 60 61 62 63 64 65 65 66 68 69 70 71 73 74 75 77 78 79 81 83 85 87 89 90 92 94 95 96 98 99 100 100 101 102 102 103 103 104 104 104 105 105 105 105 105 105 104 103 102 101 100 98 97 96 94 92 90 87 85 82 79 77 74 72 70 68
42 43 44 44 46 47 49 50 52 53 54 54 55 54 54 54 54 54 56 57 58 59 60 61 61 62 64 65 66 67 68 70 71 72 73 74 75 76 78 79 81 82 84 86 88 89 91 93 94 96 97 98 99 100 100 101 101 101 102 102 102 102 101 101 100 99 98 97 96 94 93 91 90 88 85 83 80 78 75 73 71 69 67 65 63
40 40 41 41 42 43 44 45 47 49 50 52 53 53 54 54 54 54 55 56 57 58 58 59 59 59 60 62 63 64 65 67 68 69 70 71 72 73 74 75 76 78 79 81 82 84 85 87 88 90 91 92 93 94 95 95 96 96 96 97 97 96 96 95 95 94 93 91 90 88 87 85 82 80 78 76 74 72 70 68 66 64 63 61 59
40 40 40 41 41 42 42 43 44 44 46 47 49 50 51 52 53 53 54 55 56 57 58 59 59 58 58 59 61 62 63 64 65 66 67 68 69 70 71 72 73 74 75 76 77 79 80 81 83 84 85 86 87 88 89 89 90 90 91 91 91 91 90 90 89 88 86 85 84 82 80 78 76 74 72 70 69 67 66 64 62 61 59 58 56
40 41 41 42 42 43 43 43 43 43 43 44 45 46 47 49 50 51 51 52 53 55 57 58 58 58 58 57 58 60 61 62 62 63 64 65 66 67 68 69 70 71 72 72 73 74 75 76 77 78 79 80 81 82 83 83 84 84 85 85 85 85 84 83 82 81 80 78 77 75 74 72 70 69 67 66 65 63 62 60 59 58 56 55 54
39 40 41 42 42 43 44 44 44 44 44 44 43 43 44 45 46 47 48 48 49 51 53 55 57 57 57 57 57 57 59 60 60 61 62 62 63 65 66 66 67 68 68 69 70 71 71 72 73 73 74 75 75 76 77 77 77 78 78 78 78 78 78 77 76 75 73 72 71 70 69 67 66 65 63 62 61 60 58 57 56 55 54 53 52
Wind_Direction
209 208 211 216 220 223 222 216 213 216 225 232 232 228 226 226 229 231 231 232 236 240 242 243 245 248 250 252 254 255 256 257 259 262 266 268 268 266 266 269 274 279 282 284 285 285 285 285 286 287 289 289 289 289 288 288 289 289 290 291 292 293 294 295 294 292 293 297 303 309 312 311 312 313 314 313 312 309 305 301 297 295 293 293 292
209 209 211 215 219 221 219 214 212 215 222 229 232 230 229 229 230 232 233 233 236 240 244 247 249 249 251 252 254 256 258 259 260 263 267 269 267 266 267 271 276 281 282 283 282 284 286 289 290 292 293 292 290 289 288 288 288 288 289 290 291 291 291 292 291 289 290 295 300 307 310 309 309 310 310 310 309 307 305 302 299 297 295 294 294
209 210 210 212 217 219 218 215 214 216 219 225 230 230 230 232 232 232 233 235 237 242 247 252 252 251 251 253 255 257 259 261 262 264 267 267 266 267 269 272 276 278 279 279 280 282 286 289 291 293 294 293 290 289 288 288 288 288 289 290 290 290 290 289 288 287 288 292 297 303 306 307 306 306 306 305 304 303 302 299 298 296 295 294 294
211 211 209 211 215 216 217 218 218 218 219 224 229 229 230 234 235 233 233 235 239 243 247 251 252 252 253 254 256 258 260 261 262 263 264 264 265 267 270 273 275 276 278 278 279 282 286 289 291 294 294 292 290 288 288 287 287 289 290 290 290 290 289 287 285 285 286 290 294 299 302 303 303 303 304 303 301 299 298 296 295 295 294 294 295
213 212 211 214 217 216 216 218 218 219 221 224 229 232 232 235 238 238 237 239 242 246 248 249 250 252 253 254 256 258 260 261 261 262 262 263 265 268 272 273 274 276 277 276 278 282 285 287 290 292 292 290 288 287 287 287 288 290 291 291 291 290 289 286 285 285 286 288 291 294 297 300 301 302 302 301 299 296 295 294 293 294 294 294 294
215 212 212 215 218 220 221 221 220 220 221 223 229 233 235 238 241 243 243 242 244 246 247 246 248 251 253 253 254 255 257 259 260 262 263 264 266 269 271 272 274 276 276 275 278 282 285 287 290 290 288 287 286 285 286 287 290 292 292 292 292 291 288 286 286 286 287 288 289 291 294 297 299 300 300 299 297 294 292 291 291 293 294 294 294
218 214 212 213 215 220 222 222 222 221 218 221 228 234 237 239 240 242 244 243 243 244 244 242 244 249 253 254 255 256 256 257 258 259 261 263 265 267 269 270 272 274 275 277 280 283 285 287 288 287 287 287 285 284 286 289 291 292 293 293 292 291 288 287 287 288 288 288 288 289 292 295 297 297 297 297 295 292 289 289 290 292 292 292 294
222 218 215 215 216 218 219 218 219 219 218 219 225 231 235 237 238 240 242 244 244 245 245 243 243 247 251 255 256 256 256 256 256 257 258 260 263 265 266 269 272 274 276 278 281 284 286 287 287 288 288 286 284 284 287 290 292 293 293 292 292 290 289 288 288 288 288 287 288 289 291 293 294 295 295 295 293 290 289 288 290 291 291 292 294
224 223 221 221 220 220 219 217 216 218 220 221 224 230 234 236 238 240 242 246 248 249 249 247 245 247 249 251 253 254 254 254 254 256 258 260 263 265 267 270 273 276 278 280 283 285 287 287 288 289 288 286 285 285 288 290 291 292 292 291 291 290 289 288 288 287 287 287 287 288 289 291 292 292 293 292 291 290 289 289 290 290 290 291 292
224 225 225 226 227 226 225 222 220 220 221 223 225 230 235 238 240 241 243 245 248 251 253 252 250 250 250 250 251 254 255 257 258 261 263 266 268 270 272 275 278 280 282 284 285 287 288 288 288 288 287 285 285 286 287 289 289 290 290 290 290 290 289 289 288 287 286 286 287 287 289 289 290 290 290 290 290 290 290 289 289 290 290 290 290
226 226 227 228 229 231 232 229 228 225 223 223 225 229 235 240 243 245 246 247 249 251 253 254 254 253 253 253 254 256 259 262 265 267 270 273 274 276 277 279 281 283 285 285 286 287 288 288 287 287 286 285 285 285 286 287 289 289 289 290 290 290 289 288 288 287 287 287 287 287 288 288 288 288 288 288 289 290 290 289 289 290 290 289 289
231 229 228 227 227 230 233 234 233 232 229 227 227 229 235 240 243 246 248 249 250 250 252 253 253 254 254 254 255 257 260 263 266 269 272 274 276 277 279 280 281 283 283 284 285 285 286 286 286 286 286 285 285 286 286 287 288 289 289 289 289 289 289 288 287 287 286 287 287 287 288 288 288 289 288 288 289 290 289 289 289 289 289 289 289
237 234 230 228 228 229 231 233 234 234 233 231 230 232 236 240 243 245 247 249 250 252 255 256 256 256 256 257 258 260 262 265 267 270 273 275 276 277 278 279 280 280 280 281 281 282 282 283 285 286 287 287 286 286 287 288 289 289 289 289 288 288 288 287 286 286 286 287 288 288 288 289 289 289 289 289 290 290 289 288 288 288 288 288 289
240 239 236 232 230 231 232 233 233 233 233 233 233 234 237 241 244 246 248 250 251 253 257 259 261 262 262 263 264 266 267 269 270 272 274 275 276 277 277 277 277 277 277 278 278 280 281 283 285 286 287 287 287 287 288 289 289 289 289 288 288 287 287 286 286 286 288 289 290 290 290 290 291 291 290 290 290 289 288 288 288 288 289 289 290
240 241 241 237 234 233 235 236 235 234 234 234 234 236 240 243 246 247 250 251 252 253 256 258 261 263 264 265 266 267 268 269 271 272 273 274 275 275 275 275 274 274 275 276 278 281 282 284 285 287 287 287 287 288 288 288 288 288 288 288 288 288 288 288 288 289 290 291 291 290 291 292 292 292 291 290 289 288 288 287 288 289 290 290 291
240 240 242 242 239 237 236 237 237 236 236 236 235 237 241 245 248 249 251 252 253 253 255 257 259 261 263 266 267 267 268 270 271 272 273 273 273 274 274 274 274 274 276 278 280 282 283 285 286 287 286 285 285 286 286 286 287 287 288 288 288 288 289 290 290 291 291 290 290 291 291 292 292 291 290 289 288 288 288 288 289 291 291 292 293
240 239 240 242 242 241 239 239 238 238 239 239 238 239 242 244 245 246 248 250 252 253 254 256 257 259 261 263 265 267 269 271 273 273 273 273 274 274 274 275 276 277 279 280 282 283 284 284 285 285 283 282 282 283 283 284 285 286 287 287 287 288 289 290 291 290 290 289 290 290 291 290 289 287 286 287 287 287 288 289 290 291 292 293 293
239 239 238 239 241 242 242 241 240 240 240 241 240 241 243 244 245 245 245 247 249 250 252 254 255 258 260 262 264 266 268 270 270 270 270 271 272 273 275 277 278 279 281 282 283 283 284 284 283 282 281 281 281 281 281 282 283 284 286 286 287 287 288 288 288 287 286 287 287 287 287 287 286 285 285 287 287 288 289 290 291 291 292 292 292
238 238 237 236 237 240 242 243 242 241 241 242 242 242 243 244 246 247 247 249 251 251 252 253 255 257 259 262 264 266 267 268 268 268 268 269 270 272 274 276 278 279 280 281 282 282 282 282 282 281 281 280 280 280 280 281 282 283 284 285 286 287 287 286 285 284 284 284 284 284 284 284 285 286 287 287 288 289 290 290 291 291 291 291 290
238 237 238 237 235 236 238 240 242 242 241 241 243 244 244 245 246 246 247 249 252 253 253 255 257 258 260 262 263 263 263 264 266 268 270 272 273 275 276 276 276 276 277 278 279 279 280 280 280 280 280 280 280 280 281 281 282 282 283 283 284 284 284 283 283 283 283 284 284 284 284 284 285 286 287 288 289 290 290 291 291 290 290 289 289
242 239 238 238 237 235 235 236 238 240 241 241 241 243 244 245 246 246 247 249 251 254 255 256 257 258 259 260 260 260 261 262 264 267 270 273 275 276 277 277 277 277 277 277 277 278 278 278 278 278 279 279 280 281 281 282 283 284 284 284 284 284 283 282 282 282 283 284 284 285 285 286 287 288 288 289 289 290 290 290 289 289 289 289 289
246 243 240 239 239 238 236 235 235 237 239 240 240 240 242 244 246 247 248 250 252 254 256 257 257 257 257 256 256 258 260 263 264 267 269 271 273 275 276 276 277 277 277 277 277 277 277 276 276 277 278 280 281 282 283 284 285 285 286 286 286 286 286 285 286 286 286 287 287 288 289 290 290 290 290 290 290 289 289 289 289 289 290 290 291
247 246 243 241 240 239 238 237 236 236 236 237 238 239 240 241 243 245 247 249 250 251 253 254 255 255 255 255 255 256 259 261 263 265 266 268 270 272 274 274 275 276 276 276 276 277 276 276 276 277 278 279 280 282 283 283 284 285 285 286 286 286 286 287 287 288 288 289 290 290 291 291 290 290 290 290 289 289 289 289 289 290 290 291 291
246 246 245 243 242 241 240 239 239 238 237 236 237 238 239 239 240 242 244 246 247 248 249 250 251 251 252 254 255 257 258 260 261 263 265 266 267 269 270 271 272 274 274 275 275 276 276 277 278 279 280 281 282 282 282 282 283 283 284 285 285 286 286 287 287 288 289 289 290 290 290 290 290 289 289 289 289 289 289 289 289 290 290 291 292
245 245 244 244 244 243 242 241 240 240 239 239 238 238 238 239 239 239 241 243 245 247 248 248 249 250 252 253 255 256 258 260 261 263 264 265 267 268 269 270 271 273 274 275 276 277 278 278 279 281 282 283 283 283 283 283 283 283 284 285 285 286 287 288 289 289 290 290 290 290 289 288 288 287 287 287 288 288 289 289 290 291 292 293 294
247 246 245 245 244 244 244 243 242 241 241 241 240 239 239 239 240 240 240 240 242 244 246 248 249 250 251 253 254 256 258 260 261 262 263 265 266 267 268 269 270 271 272 274 275 277 277 278 278 279 280 281 282 282 282 282 283 284 285 286 287 289 290 290 290 290 289 289 288 287 287 286 286 286 286 287 288 289 289 290 291 292 293 294 295
248 248 247 247 246 246 245 245 243 243 242 242 242 242 241 241 241 241 241 241 241 241 243 246 248 249 251 252 253 255 257 258 260 261 262 263 264 265 266 267 268 269 270 272 273 275 275 276 276 277 278 279 279 280 280 282 283 284 286 287 288 288 288 288 287 287 286 286 285 285 285 285 285 286 287 288 288 289 290 291 292 293 293 294 295
252 249 248 248 248 248 248 247 246 245 244 244 244 244 244 243 243 243 243 243 243 243 243 244 245 248 250 252 253 254 255 257 258 259 260 262 262 263 264 264 265 267 268 269 271 272 273 273 274 274 275 277 278 279 280 281 283 284 285 285 285 285 285 285 284 284 283 283 283 284 284 285 285 286 287 288 289 290 291 291 292 293 294 294 295
258 254 251 250 249 249 249 249 249 249 248 246 245 245 246 245 245 245 245 245 245 245 245 245 246 246 248 250 252 254 255 256 257 257 258 259 261 262 262 263 263 264 265 266 268 269 270 271 272 273 274 276 277 278 279 280 280 281 282 282 282 282 282 282 282 282 282 282 283 283 284 285 286 286 287 288 289 290 291 291 292 293 294 295 296
263 259 255 253 252 251 250 249 249 250 250 250 248 248 247 247 247 247 247 247 247 247 247 248 248 248 248 249 250 252 254 255 256 257 258 259 259 260 261 262 262 263 263 264 265 266 268 269 270 271 272 274 275 275 276 277 277 278 278 279 279 279 279 280 280 281 281 282 283 284 284 285 286 287 288 288 289 290 291 292 293 294 295 296 296
266 262 259 256 254 253 252 251 250 250 250 251 251 250 249 249 249 249 248 249 249 249 249 249 249 250 250 251 251 252 253 254 255 256 257 258 259 260 260 261 262 262 262 263 264 264 265 266 267 268 269 270 271 272 273 274 275 275 276 276 277 278 278 279 280 281 281 282 283 284 285 286 286 287 288 289 289 290 291 292 293 294 295 295 296
265 264 262 259 257 255 254 253 252 252 251 251 251 251 251 250 250 250 250 250 250 250 250 251 251 251 252 252 253 253 254 255 255 256 256 257 258 259 259 260 261 262 262 262 263 263 264 265 265 266 267 267 268 270 271 272 273 274 275 275 276 277 278 279 280 281 282 282 283 284 285 286 286 287 288 289 290 291 292 292 293 294 294 295 296
263 263 262 261 259 258 256 255 254 253 253 253 252 252 252 252 252 252 253 253 252 252 252 252 252 253 253 254 254 254 255 255 256 256 257 257 258 258 259 259 260 261 261 262 262 263 264 264 265 266 267 268 269 270 271 272 273 274 274 275 276 277 278 279 280 281 282 283 283 284 285 286 287 288 288 289 290 291 291 292 293 293 294 294 295
263 263 262 262 261 260 259 258 257 256 255 255 254 254 253 253 253 253 254 255 255 255 254 254 254 254 254 254 254 254 255 255 256 257 257 258 258 258 259 259 260 261 261 262 263 263 264 265 266 267 268 268 269 270 271 272 273 274 275 276 276 277 278 279 280 281 282 283 284 284 285 286 287 288 289 289 290 290 291 291 292 293 293 294 294
264 264 264 263 262 261 260 259 258 257 257 256 256 256 255 255 255 254 255 255 256 256 256 255 255 255 255 255 255 255 255 255 256 257 257 258 259 259 260 260 261 261 262 263 263 264 265 266 266 267 268 269 270 271 272 273 274 275 275 276 277 278 279 280 281 282 282 283 284 285 285 286 287 287 288 289 289 290 290 291 292 292 293 294 294
264 264 264 263 263 262 261 260 259 258 258 257 257 257 258 258 257 257 257 257 257 257 257 257 256 256 257 257 257 257 256 256 256 257 257 258 259 260 260 261 262 262 263 264 264 265 266 267 268 268 269 270 271 272 273 274 275 276 277 277 278 279 280 281 281 282 283 283 284 284 285 285 286 287 287 288 289 289 290 291 292 293 294 294 295
265 265 265 265 264 264 263 262 261 260 260 259 258 258 258 258 258 258 258 258 258 258 258 258 259 258 258 258 258 259 259 258 258 258 258 259 259 260 261 261 262 263 263 264 265 266 267 267 268 269 270 271 272 273 273 274 275 276 277 277 278 279 279 280 281 281 282 282 283 284 285 285 286 287 288 289 289 290 291 292 293 294 295 295 296
271 271 271 270 270 269 269 268 267 266 265 264 263 263 262 262 262 261 261 261 261 261 261 261 261 261 261 261 261 261 262 262 262 262 261 261 261 262 262 262 263 263 264 264 265 266 266 267 268 269 270 270 271 272 273 274 274 275 276 276 277 278 279 279 280 281 282 283 284 285 286 286 287 288 289 289 290 291 292 293 294 295 295 296 297
275 274 273 273 272 272 271 270 270 269 268 268 267 267 266 266 266 265 265 264 264 263 263 263 263 263 263 263 263 264 264 264 265 265 265 265 265 265 265 265 265 265 265 265 266 266 267 268 268 269 269 270 271 272 272 273 274 275 275 276 277 278 278 279 280 281 282 283 285 285 286 287 288 288 289 290 291 292 293 294 295 295 296 297 297
276 275 274 273 272 271 270 270 269 268 268 268 267 267 266 266 266 265 265 265 264 264 263 262 262 262 263 263 263 264 264 264 265 265 266 266 266 266 267 267 267 267 267 267 268 268 268 269 269 270 270 271 271 272 273 274 274 275 276 277 277 278 279 280 281 282 283 284 285 286 286 287 287 288 289 290 291 292 293 294 295 296 296 297 298
278 277 276 275 274 273 272 271 270 269 268 267 267 266 266 265 265 265 264 264 264 263 263 262 262 261 261 261 261 262 262 262 263 263 264 264 265 265 266 266 267 267 268 268 268 269 269 269 270 270 271 271 272 273 273 274 275 276 276 277 278 279 280 281 281 282 283 284 284 285 286 286 287 288 289 290 291 292 294 294 295 296 297 297 298
278 278 277 276 276 275 275 274 274 273 272 270 269 268 267 266 265 265 264 264 263 263 263 262 262 262 261 261 261 261 261 261 261 261 262 262 263 263 264 264 265 265 266 267 267 268 268 269 269 270 271 271 272 273 273 274 275 275 276 277 278 279 279 280 281 282 282 283 284 284 285 286 287 288 290 291 292 293 294 295 296 297 297 298 298
278 278 277 276 275 274 274 273 273 273 273 272 272 271 270 269 268 267 266 265 264 264 263 263 262 262 262 262 261 261 261 261 261 261 261 261 261 262 262 263 263 264 264 265 265 266 267 267 268 269 269 270 271 271 272 273 274 274 275 276 277 278 278 279 280 281 282 282 283 284 285 287 288 289 291 292 293 294 295 296 297 297 297 297 297
282 282 281 280 279 278 277 275 273 272 271 270 270 270 269 269 269 268 268 267 266 266 265 265 264 264 263 263 262 262 261 261 261 261 261 261 261 261 262 262 262 263 263 264 264 265 266 266 267 268 268 269 270 270 271 272 273 273 274 275 276 277 278 279 279 280 281 282 283 285 286 287 289 290 291 292 293 294 295 296 296 297 297 297 297
283 283 283 283 283 282 282 281 280 278 276 274 272 270 269 268 268 267 267 267 267 267 267 266 266 265 264 264 264 263 263 263 262 262 262 262 262 262 262 262 263 263 263 264 264 265 265 266 266 267 268 268 269 270 271 271 272 273 274 275 276 277 278 279 279 280 282 283 284 286 287 288 289 291 292 293 294 295 295 295 296 296 296 296 296
281 281 281 281 282 282 282 282 282 282 281 279 278 276 274 272 271 270 269 268 268 267 267 267 266 266 266 265 265 264 264 264 264 264 263 263 263 263 263 263 263 264 264 264 265 265 265 266 266 267 268 268 269 270 271 272 272 273 274 275 276 277 278 279 280 282 283 284 285 287 288 289 290 291 292 293 294 294 294 295 295 295 295 295 295
282 281 281 280 280 280 280 281 281 281 281 281 280 279 278 277 276 274 273 272 271 270 268 267 267 266 266 266 265 265 265 265 265 265 265 265 265 264 264 264 264 265 265 265 266 266 266 267 267 268 268 269 270 271 272 272 273 274 275 276 277 278 279 281 282 283 284 285 286 287 288 289 290 291 292 293 293 294 294 294 294 295 295 295 295
289 288 286 285 284 283 282 281 280 280 280 280 280 280 280 279 278 277 276 275 274 274 272 271 269 268 267 267 266 266 265 265 265 265 265 265 266 266 266 266 266 266 266 266 267 267 267 268 268 269 269 270 271 272 273 274 275 275 276 277 278 279 280 281 283 284 285 286 287 288 289 290 291 291 292 293 293 293 294 294 294 294 294 294 294
296 295 294 293 291 290 288 286 284 283 282 281 280 280 279 279 278 278 277 276 276 275 275 274 273 271 270 268 268 267 267 266 266 266 266 266 266 266 266 266 267 267 267 267 268 268 269 269 270 270 271 271 272 273 274 274 275 276 277 278 279 280 281 282 283 284 285 286 287 288 289 290 291 291 292 292 293 293 293 294 294 294 294 294 294
300 299 299 298 297 296 294 293 291 289 287 285 283 282 281 280 279 277 277 276 276 275 275 275 274 274 272 271 270 269 269 268 267 267 267 267 267 267 267 267 267 267 267 268 268 269 269 270 271 271 272 272 273 274 274 275 276 276 277 278 279 280 281 282 283 284 285 286 287 288 289 290 290 291 291 292 292 292 293 293 294 294 294 294 295
301 301 300 300 299 299 298 297 296 294 293 291 289 287 286 284 282 281 279 277 275 275 275 275 275 275 274 273 272 271 270 270 269 269 268 268 268 268 268 268 268 268 268 268 269 269 270 270 271 272 272 273 273 274 275 275 276 277 278 279 280 280 281 282 283 284 285 286 287 288 288 289 290 290 290 291 291 292 292 293 293 293 294 294 294
Height
10595 10599 10603 10606 10610 10615 10619 10625 10631 10637 10641 10640 10640 10642 10644 10645 10646 10647 10649 10652 10653 10654 10656 10658 10659 10661 10662 10664 10665 10666 10666 10666 10667 10667 10667 10667 10667 10667 10667 10667 10666 10666 10665 10665 10665 10664 10663 10662 10662 10662 10662 10661 10660 10660 10659 10659 10658 10658 10657 10656 10655 10653 10652 10651 10650 10650 10649 10649 10648 10646 10645 10644 10642 10641 10639 10638 10636 10635 10634 10633 10633 10632 10631 10630 10630
10593 10597 10600 10604 10608 10612 10615 10619 10623 10626 10629 10631 10633 10636 10638 10639 10640 10642 10644 10646 10648 10649 10651 10652 10654 10655 10657 10659 10660 10660 10660 10661 10661 10662 10662 10662 10662 10662 10662 10662 10662 10661 10661 10661 10661 10660 10659 10658 10658 10658 10658 10657 10656 10655 10655 10654 10654 10653 10652 10652 10651 10649 10648 10647 10646 10646 10645 10645 10644 10642 10641 10640 10639 10637 10636 10635 10634 10632 10631 10630 10629 10628 10627 10626 10625
10591 10593 10597 10602 10606 10609 10612 10614 10616 10618 10621 10623 10625 10628 10631 10632 10633 10635 10638 10640 10642 10644 10646 10646 10647 10649 10651 10653 10654 10654 10654 10655 10656 10656 10657 10657 10657 10656 10657 10657 10657 10657 10657 10657 10657 10657 10655 10654 10654 10654 10654 10653 10652 10651 10650 10650 10649 10648 10648 10647 10646 10645 10644 10643 10642 10642 10641 10640 10639 10638 10637 10636 10635 10634 10633 10632 10630 10629 10628 10627 10626 10624 10623 10622 10621
10588 10591 10595 10599 10601 10604 10606 10609 10612 10615 10617 10619 10620 10622 10624 10624 10625 10628 10632 10634 10637 10639 10640 10640 10640 10643 10646 10647 10648 10648 10648 10648 10650 10651 10651 10651 10651 10651 10652 10652 10653 10653 10653 10654 10653 10653 10652 10651 10650 10650 10649 10648 10647 10646 10646 10645 10645 10644 10643 10643 10642 10641 10640 10640 10638 10637 10637 10636 10635 10634 10633 10632 10631 10630 10629 10628 10627 10625 10624 10623 10621 10620 10618 10617 10616
10586 10589 10593 10595 10597 10599 10600 10603 10608 10611 10614 10616 10617 10618 10620 10620 10621 10625 10628 10630 10632 10633 10635 10635 10634 10636 10639 10641 10642 10642 10643 10643 10643 10644 10645 10645 10646 10646 10647 10647 10648 10649 10649 10649 10649 10649 10648 10647 10646 10645 10644 10643 10642 10641 10641 10641 10640 10639 10639 10638 10638 10637 10636 10635 10634 10633 10632 10631 10631 10629 10628 10628 10627 10626 10625 10624 10623 10621 10620 10618 10617 10615 10614 10613 10611
10583 10587 10590 10592 10594 10596 10598 10601 10605 10608 10611 10613 10614 10615 10616 10618 10620 10622 10623 10625 10626 10627 10629 10630 10629 10630 10632 10633 10635 10637 10637 10637 10638 10638 10639 10639 10640 10641 10641 10642 10643 10644 10645 10645 10645 10645 10644 10642 10641 10639 10639 10638 10638 10637 10636 10636 10635 10635 10634 10633 10633 10633 10632 10631 10630 10629 10628 10627 10626 10625 10624 10623 10622 10621 10620 10619 10618 10616 10615 10613 10612 10610 10609 10608 10606
10580 10583 10586 10588 10590 10592 10595 10599 10602 10605 10608 10610 10611 10612 10613 10614 10616 10617 10617 10619 10621 10621 10623 10624 10624 10624 10625 10627 10629 10630 10631 10632 10633 10633 10633 10634 10634 10635 10636 10637 10638 10640 10640 10640 10640 10640 10639 10637 10634 10634 10633 10633 10633 10632 10631 10631 10630 10629 10629 10628 10628 10627 10627 10626 10625 10624 10623 10622 10621 10620 10619 10618 10617 10616 10615 10614 10613 10611 10609 10608 10607 10605 10603 10602 10600
10576 10579 10582 10584 10586 10588 10591 10595 10599 10602 10604 10606 10608 10609 10610 10610 10611 10611 10612 10613 10614 10615 10617 10619 10619 10620 10621 10622 10623 10624 10624 10625 10626 10627 10628 10629 10630 10631 10631 10632 10633 10634 10635 10635 10635 10635 10634 10631 10628 10628 10629 10629 10628 10628 10626 10625 10625 10624 10623 10623 10622 10622 10621 10621 10620 10619 10619 10618 10617 10615 10614 10613 10612 10610 10609 10609 10608 10606 10604 10602 10601 10600 10597 10595 10594
10573 10576 10578 10579 10582 10585 10589 10592 10595 10598 10600 10602 10604 10605 10606 10606 10606 10607 10608 10609 10609 10609 10610 10612 10614 10616 10616 10617 10617 10618 10618 10619 10620 10621 10622 10624 10625 10626 10626 10627 10628 10629 10629 10630 10629 10629 10628 10626 10624 10624 10624 10623 10623 10623 10621 10620 10619 10618 10618 10617 10617 10616 10616 10616 10615 10614 10613 10613 10612 10610 10609 10608 10606 10604 10603 10602 10601 10600 10598 10596 10595 10593 10591 10588 10587
10569 10572 10574 10576 10579 10583 10586 10589 10592 10594 10595 10597 10599 10600 10601 10601 10602 10602 10603 10604 10604 10603 10603 10605 10609 10610 10611 10612 10612 10612 10613 10613 10614 10615 10616 10618 10619 10620 10620 10621 10622 10622 10623 10623 10623 10623 10623 10621 10619 10619 10618 10618 10617 10617 10615 10615 10614 10613 10612 10611 10611 10610 10610 10610 10609 10609 10608 10607 10606 10605 10604 10603 10601 10599 10598 10596 10595 10593 10592 10589 10588 10587 10585 10582 10580
10566 10569 10571 10574 10577 10580 10583 10586 10588 10589 10591 10592 10594 10595 10595 10596 10597 10597 10598 10599 10599 10599 10598 10600 10602 10604 10605 10606 10606 10606 10606 10607 10608 10609 10610 10612 10612 10612 10613 10614 10615 10615 10616 10616 10617 10617 10617 10616 10615 10614 10613 10612 10612 10610 10609 10609 10608 10607 10606 10605 10604 10604 10604 10603 10603 10602 10602 10601 10600 10599 10598 10597 10596 10594 10592 10590 10589 10587 10585 10583 10581 10580 10579 10576 10572
10562 10565 10568 10571 10574 10577 10579 10581 10583 10585 10586 10587 10588 10589 10590 10591 10591 10592 10593 10593 10594 10594 10593 10595 10596 10597 10598 10599 10599 10600 10600 10601 10602 10603 10604 10605 10606 10606 10606 10607 10608 10609 10609 10610 10610 10611 10611 10610 10609 10609 10608 10607 10606 10604 10603 10603 10602 10601 10600 10599 10599 10598 10597 10597 10596 10595 10595 10594 10593 10592 10591 10590 10589 10588 10585 10583 10582 10581 10579 10577 10575 10573 10571 10569 10565
10557 10560 10564 10568 10571 10573 10575 10576 10578 10580 10580 10581 10582 10584 10585 10586 10587 10588 10588 10587 10588 10589 10588 10588 10588 10588 10590 10592 10593 10594 10594 10595 10597 10598 10598 10599 10599 10599 10600 10601 10601 10602 10603 10604 10604 10604 10604 10604 10603 10603 10602 10600 10599 10598 10597 10597 10596 10596 10595 10594 10593 10592 10591 10590 10589 10588 10587 10586 10586 10585 10583 10583 10582 10581 10578 10576 10575 10574 10573 10571 10569 10567 10564 10561 10558
10552 10555 10559 10563 10567 10569 10570 10571 10573 10574 10575 10575 10577 10579 10580 10581 10582 10583 10582 10581 10583 10584 10583 10582 10581 10581 10583 10585 10587 10587 10588 10589 10590 10591 10591 10592 10592 10592 10593 10594 10594 10595 10597 10597 10597 10597 10597 10597 10598 10597 10595 10593 10592 10592 10591 10591 10590 10589 10589 10588 10587 10586 10585 10584 10582 10581 10580 10579 10578 10577 10576 10575 10575 10574 10571 10570 10568 10566 10565 10563 10562 10560 10557 10554 10551
10548 10550 10553 10557 10561 10564 10566 10567 10568 10569 10570 10572 10574 10575 10576 10577 10578 10578 10577 10576 10577 10578 10578 10578 10577 10575 10575 10577 10579 10580 10580 10581 10582 10583 10584 10584 10584 10584 10585 10586 10587 10588 10589 10590 10590 10590 10590 10590 10591 10590 10588 10586 10585 10584 10584 10584 10583 10582 10582 10581 10580 10579 10578 10577 10575 10574 10573 10571 10570 10569 10568 10566 10566 10564 10563 10561 10559 10557 10555 10554 10552 10551 10548 10546 10543
10543 10545 10547 10550 10554 10558 10561 10562 10564 10564 10565 10568 10571 10572 10572 10572 10572 10572 10572 10569 10569 10572 10573 10573 10572 10570 10569 10570 10571 10572 10573 10573 10574 10574 10575 10575 10576 10576 10577 10578 10579 10580 10582 10582 10583 10583 10582 10582 10583 10583 10581 10579 10578 10577 10577 10576 10575 10575 10574 10574 10573 10571 10570 10569 10569 10568 10566 10564 10562 10561 10561 10559 10558 10555 10553 10551 10550 10548 10545 10543 10542 10540 10539 10537 10534
10539 10541 10543 10545 10548 10551 10554 10557 10558 10559 10561 10564 10566 10566 10566 10567 10566 10566 10566 10563 10563 10566 10567 10566 10565 10564 10564 10564 10564 10565 10565 10565 10565 10565 10565 10566 10567 10567 10568 10569 10570 10572 10573 10574 10574 10574 10574 10573 10574 10574 10573 10572 10571 10570 10569 10569 10568 10567 10567 10567 10566 10565 10564 10562 10561 10561 10559 10557 10555 10554 10554 10553 10551 10548 10545 10543 10542 10540 10538 10536 10533 10531 10530 10527 10525
10534 10536 10538 10540 10542 10544 10547 10550 10552 10554 10556 10558 10560 10560 10560 10560 10559 10559 10559 10556 10557 10561 10561 10559 10558 10558 10558 10558 10558 10558 10559 10559 10558 10557 10557 10558 10558 10558 10559 10560 10561 10562 10563 10564 10564 10564 10564 10564 10564 10565 10564 10564 10563 10563 10562 10561 10561 10560 10560 10560 10559 10559 10558 10557 10555 10554 10553 10552 10550 10548 10547 10545 10543 10540 10538 10536 10534 10532 10530 10529 10526 10523 10520 10518 10515
10529 10531 10533 10535 10537 10538 10540 10543 10545 10548 10550 10552 10553 10553 10553 10552 10552 10553 10552 10550 10551 10554 10555 10553 10552 10551 10552 10553 10552 10552 10552 10550 10548 10547 10549 10550 10551 10551 10553 10553 10553 10553 10554 10555 10555 10555 10555 10555 10555 10555 10555 10555 10554 10554 10554 10554 10553 10553 10553 10553 10552 10551 10551 10550 10548 10546 10545 10544 10543 10541 10539 10537 10534 10531 10529 10528 10526 10524 10522 10519 10517 10514 10511 10509 10507
10523 10525 10527 10528 10530 10532 10534 10536 10538 10540 10543 10545 10545 10545 10546 10546 10546 10546 10546 10544 10544 10546 10547 10547 10545 10544 10546 10547 10546 10545 10545 10542 10538 10536 10537 10539 10540 10542 10545 10545 10545 10547 10548 10547 10546 10546 10546 10546 10546 10545 10545 10545 10545 10544 10544 10545 10545 10546 10546 10546 10545 10544 10543 10542 10539 10537 10535 10534 10533 10532 10531 10529 10526 10524 10522 10519 10517 10514 10512 10509 10507 10505 10502 10500 10498
10516 10519 10521 10522 10524 10526 10527 10529 10531 10533 10535 10537 10538 10538 10538 10539 10539 10538 10539 10538 10538 10538 10539 10539 10538 10537 10538 10538 10537 10535 10534 10534 10533 10531 10530 10529 10529 10531 10533 10533 10533 10536 10538 10538 10537 10538 10538 10537 10536 10536 10535 10535 10535 10534 10534 10535 10535 10536 10536 10536 10535 10534 10533 10532 10530 10528 10526 10525 10523 10522 10521 10519 10517 10515 10513 10510 10508 10505 10502 10499 10497 10494 10492 10490 10488
10509 10511 10513 10515 10516 10518 10520 10522 10524 10525 10527 10529 10530 10531 10532 10531 10531 10531 10531 10532 10532 10531 10531 10531 10530 10529 10529 10529 10527 10525 10524 10525 10526 10526 10525 10522 10520 10521 10522 10522 10522 10523 10525 10526 10526 10527 10527 10527 10527 10526 10525 10525 10524 10524 10524 10523 10523 10523 10523 10522 10522 10521 10520 10519 10517 10516 10514 10513 10511 10510 10508 10507 10505 10503 10501 10499 10496 10494 10491 10488 10486 10484 10481 10479 10477
10500 10502 10504 10506 10508 10509 10511 10513 10515 10517 10518 10520 10521 10523 10524 10525 10525 10524 10524 10524 10524 10524 10522 10521 10521 10520 10520 10519 10518 10516 10516 10516 10517 10518 10517 10516 10514 10513 10512 10512 10512 10513 10514 10514 10515 10516 10516 10516 10517 10517 10517 10516 10516 10515 10515 10514 10513 10512 10512 10511 10510 10509 10508 10507 10506 10505 10503 10501 10500 10498 10496 10495 10493 10491 10488 10486 10484 10482 10480 10478 10475 10473 10470 10467 10465
10492 10494 10496 10498 10499 10500 10502 10504 10506 10508 10509 10511 10513 10514 10516 10517 10518 10518 10517 10517 10516 10516 10514 10513 10512 10511 10510 10509 10509 10509 10509 10509 10509 10509 10509 10508 10507 10506 10505 10503 10503 10503 10503 10504 10505 10505 10505 10505 10505 10505 10506 10506 10506 10505 10505 10504 10503 10502 10501 10501 10500 10499 10499 10498 10497 10496 10494 10492 10490 10488 10486 10483 10481 10478 10476 10474 10472 10471 10469 10467 10464 10461 10458 10455 10452
10484 10485 10487 10489 10490 10492 10493 10495 10497 10499 10500 10502 10504 10505 10507 10508 10509 10510 10511 10510 10509 10509 10507 10506 10505 10504 10503 10501 10501 10501 10501 10502 10502 10502 10501 10500 10500 10499 10497 10496 10496 10495 10494 10494 10494 10494 10494 10493 10493 10493 10493 10493 10492 10492 10492 10492 10491 10491 10490 10490 10490 10489 10489 10488 10487 10485 10483 10481 10479 10477 10474 10472 10470 10468 10466 10464 10462 10460 10458 10456 10453 10449 10446 10442 10438
10476 10477 10478 10480 10482 10483 10484 10486 10488 10490 10491 10492 10494 10496 10497 10499 10500 10501 10503 10503 10502 10502 10500 10499 10498 10498 10496 10495 10494 10494 10494 10494 10494 10494 10493 10493 10492 10491 10490 10489 10489 10488 10487 10486 10485 10484 10484 10483 10483 10482 10482 10482 10482 10482 10481 10480 10480 10479 10479 10478 10478 10477 10476 10475 10474 10472 10471 10469 10467 10466 10464 10462 10460 10458 10456 10453 10451 10449 10446 10443 10440 10437 10433 10429 10425
10468 10469 10470 10472 10473 10474 10475 10477 10479 10480 10482 10483 10484 10486 10488 10489 10490 10491 10493 10494 10494 10494 10494 10493 10492 10491 10489 10488 10488 10487 10487 10487 10486 10486 10485 10485 10484 10484 10483 10482 10481 10480 10479 10479 10478 10477 10476 10475 10474 10474 10473 10473 10473 10473 10472 10470 10470 10469 10468 10467 10467 10466 10465 10464 10463 10461 10460 10459 10457 10455 10453 10451 10449 10447 10444 10442 10439 10437 10434 10430 10427 10424 10421 10417 10413
10460 10461 10462 10463 10465 10465 10466 10467 10469 10471 10472 10474 10475 10476 10478 10480 10481 10481 10483 10484 10484 10485 10486 10485 10484 10483 10481 10480 10480 10480 10479 10478 10478 10478 10477 10476 10475 10475 10475 10475 10474 10473 10472 10472 10471 10470 10468 10467 10466 10465 10464 10464 10463 10463 10462 10461 10460 10459 10458 10457 10456 10455 10454 10453 10452 10451 10450 10448 10447 10445 10443 10440 10438 10435 10433 10430 10428 10425 10422 10418 10415 10412 10408 10405 10401
10452 10453 10453 10454 10455 10456 10457 10459 10460 10461 10462 10464 10466 10467 10467 10469 10470 10472 10473 10474 10475 10476 10476 10475 10475 10475 10474 10472 10472 10472 10470 10469 10469 10470 10469 10468 10466 10464 10465 10467 10467 10466 10465 10464 10463 10462 10460 10459 10458 10457 10456 10455 10454 10453 10453 10452 10451 10450 10449 10447 10446 10445 10444 10443 10442 10441 10439 10438 10436 10434 10432 10429 10427 10424 10421 10419 10416 10413 10410 10406 10403 10399 10395 10392 10388
10442 10443 10444 10445 10445 10446 10447 10449 10450 10451 10452 10454 10455 10456 10457 10458 10459 10461 10462 10463 10464 10465 10465 10465 10464 10464 10463 10463 10463 10463 10461 10460 10460 10460 10460 10460 10458 10455 10455 10456 10457 10457 10456 10455 10454 10453 10451 10450 10450 10449 10448 10446 10445 10444 10442 10441 10441 10440 10439 10438 10437 10435 10434 10433 10431 10430 10429 10427 10425 10423 10420 10418 10415 10412 10410 10407 10404 10401 10398 10394 10390 10387 10383 10379 10375
10432 10432 10433 10434 10435 10436 10436 10438 10439 10441 10442 10443 10444 10445 10446 10447 10448 10449 10450 10451 10452 10453 10453 10453 10453 10452 10452 10452 10453 10453 10452 10451 10450 10450 10450 10450 10449 10447 10446 10445 10446 10446 10446 10445 10444 10443 10442 10441 10441 10440 10439 10437 10436 10434 10433 10432 10431 10430 10429 10428 10426 10425 10424 10422 10420 10419 10417 10415 10413 10411 10408 10405 10403 10400 10397 10394 10391 10388 10384 10381 10377 10374 10370 10367 10363
10422 10422 10422 10423 10424 10425 10426 10427 10428 10430 10431 10432 10432 10433 10435 10436 10437 10438 10439 10439 10440 10440 10441 10441 10441 10441 10441 10441 10442 10443 10442 10441 10440 10440 10440 10440 10440 10439 10437 10436 10435 10434 10434 10434 10433 10432 10432 10431 10430 10429 10428 10427 10426 10425 10424 10422 10421 10420 10418 10417 10415 10414 10412 10411 10409 10407 10405 10403 10401 10399 10396 10393 10390 10387 10384 10381 10378 10374 10371 10368 10365 10361 10358 10354 10351
10412 10412 10412 10413 10414 10414 10415 10416 10417 10418 10419 10420 10421 10422 10423 10424 10425 10426 10426 10426 10427 10428 10428 10429 10429 10429 10429 10430 10430 10431 10431 10430 10429 10429 10429 10430 10430 10429 10428 10427 10425 10424 10423 10422 10422 10421 10420 10420 10419 10417 10416 10415 10414 10413 10412 10411 10410 10408 10407 10405 10404 10402 10401 10399 10397 10395 10393 10391 10389 10386 10384 10381 10377 10375 10372 10369 10365 10362 10359 10355 10352 10349 10345 10342 10338
10402 10402 10402 10402 10403 10404 10404 10405 10406 10407 10408 10408 10409 10410 10411 10412 10413 10414 10414 10414 10414 10415 10415 10416 10416 10417 10417 10417 10417 10418 10418 10418 10418 10417 10417 10418 10418 10418 10417 10416 10415 10413 10412 10412 10411 10410 10409 10408 10407 10406 10404 10403 10402 10401 10400 10399 10398 10396 10395 10393 10392 10390 10388 10387 10385 10383 10381 10379 10376 10373 10371 10368 10365 10362 10360 10357 10353 10350 10346 10343 10340 10337 10333 10330 10326
10391 10391 10391 10392 10392 10392 10393 10394 10394 10395 10396 10397 10398 10398 10399 10400 10401 10401 10401 10401 10401 10401 10402 10403 10403 10404 10404 10403 10403 10404 10404 10405 10405 10405 10405 10405 10405 10405 10405 10404 10403 10402 10402 10401 10400 10399 10397 10396 10395 10394 10393 10392 10391 10389 10388 10387 10385 10384 10383 10381 10379 10378 10376 10374 10372 10370 10368 10366 10363 10361 10358 10355 10353 10350 10348 10344 10341 10338 10334 10331 10327 10324 10321 10317 10313
10380 10381 10381 10381 10381 10381 10382 10382 10383 10384 10385 10385 10386 10387 10387 10388 10388 10388 10388 10388 10388 10388 10389 10390 10391 10391 10391 10391 10390 10390 10390 10391 10391 10392 10392 10392 10392 10392 10392 10391 10391 10391 10390 10389 10388 10387 10386 10385 10383 10382 10381 10380 10379 10377 10376 10375 10373 10372 10370 10368 10367 10365 10363 10361 10359 10357 10355 10353 10351 10349 10346 10343 10341 10338 10335 10332 10329 10325 10322 10318 10315 10311 10307 10303 10299
10371 10371 10371 10371 10370 10371 10371 10371 10371 10372 10373 10374 10375 10376 10376 10376 10376 10376 10376 10375 10375 10376 10376 10377 10378 10379 10379 10378 10377 10376 10376 10377 10377 10378 10379 10379 10379 10379 10378 10378 10378 10378 10377 10376 10376 10375 10374 10373 10371 10370 10369 10367 10366 10365 10364 10362 10361 10359 10358 10356 10354 10352 10350 10349 10347 10345 10343 10341 10339 10336 10334 10331 10328 10325 10322 10319 10315 10312 10309 10305 10301 10297 10293 10289 10285
10363 10363 10362 10362 10361 10361 10361 10361 10361 10361 10362 10363 10364 10365 10365 10365 10365 10365 10364 10364 10364 10364 10365 10365 10366 10366 10366 10365 10365 10364 10363 10363 10363 10364 10365 10366 10366 10365 10365 10365 10365 10364 10364 10363 10363 10362 10361 10360 10359 10357 10356 10355 10354 10353 10352 10350 10349 10347 10346 10344 10342 10340 10338 10336 10334 10332 10330 10328 10326 10323 10321 10318 10315 10311 10308 10305 10301 10298 10295 10292 10288 10284 10280 10275 10271
10355 10354 10354 10353 10352 10351 10350 10350 10350 10350 10350 10351 10352 10353 10354 10354 10354 10353 10352 10351 10351 10351 10352 10353 10354 10354 10354 10353 10353 10352 10351 10350 10350 10350 10351 10352 10352 10352 10352 10352 10352 10351 10351 10350 10350 10349 10348 10347 10346 10345 10344 10343 10342 10341 10339 10338 10336 10335 10333 10331 10330 10327 10325 10323 10322 10320 10318 10315 10312 10310 10307 10304 10301 10298 10294 10291 10288 10285 10282 10279 10275 10271 10267 10262 10258
10344 10343 10343 10342 10341 10339 10338 10338 10337 10337 10338 10338 10339 10340 10341 10341 10340 10339 10338 10337 10336 10336 10337 10339 10340 10341 10340 10340 10340 10340 10340 10339 10338 10337 10337 10338 10338 10338 10338 10338 10338 10338 10338 10337 10336 10336 10335 10334 10333 10332 10331 10330 10329 10328 10326 10325 10323 10321 10320 10318 10316 10314 10312 10310 10308 10306 10304 10302 10299 10296 10293 10290 10287 10284 10280 10278 10275 10272 10269 10266 10262 10258 10254 10249 10244
10332 10331 10331 10330 10328 10327 10326 10325 10325 10325 10325 10326 10326 10327 10327 10327 10326 10324 10323 10322 10321 10321 10322 10323 10325 10325 10325 10325 10326 10326 10326 10326 10325 10324 10324 10324 10324 10324 10325 10325 10325 10324 10324 10324 10323 10322 10321 10320 10319 10318 10318 10317 10316 10314 10313 10311 10310 10308 10306 10305 10303 10301 10299 10297 10295 10293 10291 10288 10286 10283 10280 10277 10274 10271 10268 10265 10262 10259 10256 10253 10250 10246 10241 10236 10232
10322 10321 10320 10318 10317 10316 10315 10314 10313 10312 10312 10312 10313 10314 10313 10313 10312 10311 10309 10308 10307 10306 10307 10308 10310 10310 10310 10310 10310 10310 10310 10311 10310 10310 10310 10310 10310 10311 10311 10311 10311 10310 10310 10309 10309 10308 10308 10307 10306 10305 10304 10304 10302 10301 10300 10298 10297 10295 10293 10291 10290 10288 10286 10284 10282 10280 10278 10275 10272 10270 10267 10264 10262 10259 10256 10253 10250 10247 10244 10241 10237 10233 10229 10224 10220
10313 10312 10310 10309 10307 10306 10305 10304 10303 10301 10300 10300 10300 10300 10299 10299 10299 10298 10296 10295 10294 10293 10293 10294 10296 10296 10296 10295 10295 10295 10295 10295 10295 10296 10296 10296 10296 10296 10296 10296 10296 10295 10295 10295 10294 10294 10294 10294 10293 10292 10291 10290 10289 10288 10287 10286 10284 10282 10280 10279 10277 10275 10273 10271 10269 10267 10265 10262 10259 10257 10255 10252 10250 10247 10244 10241 10237 10234 10231 10228 10224 10220 10216 10212 10208
10304 10302 10301 10299 10297 10296 10294 10293 10293 10292 10291 10290 10289 10288 10287 10287 10286 10285 10283 10282 10281 10281 10281 10282 10283 10283 10283 10282 10281 10281 10281 10281 10281 10281 10282 10282 10282 10282 10282 10282 10281 10281 10281 10281 10281 10280 10280 10280 10279 10278 10277 10276 10275 10274 10273 10272 10270 10269 10267 10266 10264 10262 10260 10258 10256 10254 10252 10250 10247 10245 10243 10241 10238 10235 10232 10229 10225 10222 10219 10215 10212 10208 10205 10201 10198
10296 10294 10292 10290 10288 10286 10284 10282 10281 10281 10280 10279 10278 10278 10277 10276 10276 10274 10272 10270 10269 10269 10270 10270 10270 10270 10270 10269 10268 10268 10267 10267 10267 10267 10268 10268 10268 10269 10269 10268 10268 10268 10267 10267 10267 10267 10266 10266 10265 10264 10263 10262 10261 10260 10259 10258 10257 10255 10254 10252 10251 10249 10247 10245 10243 10241 10239 10238 10235 10233 10231 10229 10226 10223 10220 10217 10214 10211 10207 10204 10200 10197 10194 10191 10187
10288 10286 10285 10282 10280 10278 10275 10273 10271 10270 10268 10267 10267 10266 10266 10265 10265 10264 10262 10260 10258 10258 10258 10258 10258 10258 10257 10257 10256 10256 10255 10254 10254 10254 10254 10255 10255 10255 10255 10255 10255 10255 10254 10254 10253 10253 10252 10252 10251 10250 10249 10248 10247 10246 10245 10244 10243 10242 10241 10239 10238 10236 10234 10232 10230 10229 10227 10225 10223 10222 10219 10217 10214 10211 10208 10206 10203 10200 10196 10193 10190 10187 10184 10181 10178
10282 10279 10277 10275 10273 10270 10268 10265 10263 10260 10259 10257 10256 10255 10255 10254 10254 10252 10251 10249 10247 10246 10246 10246 10246 10246 10245 10244 10244 10244 10243 10242 10241 10241 10241 10241 10242 10242 10242 10242 10242 10241 10241 10240 10240 10240 10239 10238 10237 10237 10236 10235 10234 10233 10232 10231 10230 10229 10228 10226 10225 10223 10221 10219 10218 10216 10215 10213 10211 10209 10207 10205 10202 10200 10197 10194 10191 10188 10186 10183 10180 10177 10175 10172 10169
10274 10272 10270 10268 10265 10263 10261 10258 10255 10253 10250 10248 10246 10245 10244 10243 10243 10242 10240 10239 10237 10235 10233 10233 10234 10234 10234 10233 10232 10231 10231 10231 10230 10229 10229 10229 10229 10229 10229 10228 10228 10228 10228 10227 10227 10226 10226 10225 10224 10224 10223 10222 10221 10221 10220 10219 10218 10216 10215 10213 10212 10210 10209 10207 10206 10204 10203 10201 10199 10197 10195 10193 10191 10189 10186 10183 10180 10178 10175 10173 10170 10168 10166 10163 10161
10268 10265 10263 10260 10258 10255 10253 10250 10248 10245 10243 10240 10238 10236 10235 10233 10232 10231 10230 10229 10227 10224 10222 10221 10221 10221 10222 10222 10220 10219 10219 10219 10218 10218 10218 10218 10217 10217 10217 10216 10216 10216 10215 10215 10214 10214 10213 10212 10212 10211 10211 10210 10209 10209 10208 10207 10205 10204 10203 10201 10200 10198 10197 10196 10194 10193 10191 10190 10188 10186 10184 10182 10180 10178 10176 10173 10171 10168 10166 10163 10161 10159 10156 10154 10152
10261 10259 10256 10253 10250 10248 10245 10242 10240 10237 10235 10233 10231 10228 10226 10224 10223 10221 10221 10220 10218 10215 10212 10210 10209 10209 10209 10210 10209 10208 10207 10207 10207 10206 10206 10206 10206 10205 10205 10204 10204 10204 10204 10203 10203 10202 10202 10201 10200 10200 10199 10199 10198 10197 10196 10195 10194 10192 10191 10190 10188 10187 10186 10184 10183 10182 10181 10179 10177 10176 10174 10172 10170 10168 10166 10164 10161 10159 10157 10154 10152 10150 10148 10146 10144
10255 10252 10250 10247 10244 10240 10237 10234 10232 10229 10227 10224 10222 10220 10218 10216 10214 10212 10211 10210 10209 10207 10204 10201 10199 10198 10197 10198 10198 10197 10196 10195 10195 10195 10195 10194 10194 10194 10193 10193 10193 10192 10192 10192 10192 10191 10190 10190 10189 10189 10188 10187 10186 10185 10184 10184 10182 10181 10180 10179 10177 10176 10175 10174 10173 10172 10171 10170 10168 10166 10164 10162 10161 10159 10157 10155 10153 10151 10148 10146 10144 10143 10141 10139 10137